ITY8FJ LIMJ-EDDN

Flight info

Callsign ITY8FJ
Flight time 1h 11m
Altitude 34000
Route GEN DCT PIKOT DCT OSKOR DCT NEVNI DCT TAGIP DCT BRENO/N0452F300 M726 MAH L132 LASMI Y103 UNKUL L610 UPALA UPALA1V
Aircraft A21N/M-SDE3FGHIRWY/LB1

Departure

Time 2026-04-16 11:11
Airport Genoa Cristoforo Colombo Airport (LIMJ)

Arrival

Time 2026-04-16 12:22
Airport Nuremberg Airport (EDDN)
Time Latitude Longitude Altitude Speed Heading
2026-04-16 10:39 44.41429 8.84946 52 ft 0 kts 61°
2026-04-16 10:50 44.41425 8.84936 52 ft 2 kts 61°
2026-04-16 10:50 44.41418 8.84917 52 ft 2 kts 61°
2026-04-16 10:50 44.41410 8.84899 52 ft 2 kts 62°
2026-04-16 10:50 44.41406 8.84887 52 ft 1 kts 62°
2026-04-16 10:51 44.41396 8.84872 51 ft 2 kts 20°
2026-04-16 10:51 44.41380 8.84870 51 ft 2 kts 345°
2026-04-16 10:51 44.41367 8.84881 51 ft 2 kts 309°
2026-04-16 10:51 44.41362 8.84892 51 ft 0 kts 287°
2026-04-16 10:52 44.41361 8.84902 50 ft 0 kts 284°
2026-04-16 10:54 44.41365 8.84879 47 ft 4 kts 285°
2026-04-16 10:54 44.41377 8.84818 46 ft 8 kts 285°
2026-04-16 10:55 44.41396 8.84716 45 ft 12 kts 284°
2026-04-16 10:55 44.41410 8.84601 42 ft 12 kts 256°
2026-04-16 10:55 44.41360 8.84491 39 ft 14 kts 233°
2026-04-16 10:55 44.41316 8.84365 37 ft 15 kts 273°
2026-04-16 10:56 44.41334 8.84257 36 ft 10 kts 284°
2026-04-16 10:56 44.41353 8.84152 36 ft 11 kts 284°
2026-04-16 10:56 44.41375 8.84042 36 ft 11 kts 286°
2026-04-16 10:56 44.41399 8.83925 36 ft 13 kts 285°
2026-04-16 10:57 44.41425 8.83793 36 ft 14 kts 285°
2026-04-16 10:57 44.41452 8.83650 36 ft 15 kts 284°
2026-04-16 10:57 44.41483 8.83496 36 ft 16 kts 285°
2026-04-16 10:57 44.41515 8.83333 36 ft 17 kts 285°
2026-04-16 10:58 44.41549 8.83162 36 ft 18 kts 285°
2026-04-16 10:58 44.41582 8.82986 36 ft 17 kts 284°
2026-04-16 10:58 44.41616 8.82820 36 ft 17 kts 285°
2026-04-16 10:58 44.41647 8.82657 36 ft 17 kts 285°
2026-04-16 10:59 44.41640 8.82521 36 ft 13 kts 213°
2026-04-16 10:59 44.41554 8.82485 36 ft 12 kts 166°
2026-04-16 10:59 44.41521 8.82536 36 ft 0 kts 108°
2026-04-16 11:03 44.41517 8.82556 36 ft 5 kts 107°
2026-04-16 11:03 44.41497 8.82651 36 ft 14 kts 105°
2026-04-16 11:03 44.41422 8.83036 36 ft 21 kts 106°
2026-04-16 11:04 44.41430 8.83128 36 ft 7 kts 357°
2026-04-16 11:04 44.41483 8.83092 36 ft 9 kts 343°
2026-04-16 11:04 44.41553 8.83108 36 ft 5 kts 343°
2026-04-16 11:04 44.41571 8.83056 36 ft 6 kts 289°
2026-04-16 11:05 44.41584 8.82991 36 ft 7 kts 283°
2026-04-16 11:05 44.41596 8.82917 36 ft 8 kts 285°
2026-04-16 11:05 44.41612 8.82839 36 ft 8 kts 285°
2026-04-16 11:05 44.41620 8.82798 36 ft 0 kts 285°
2026-04-16 11:07 44.41622 8.82787 36 ft 2 kts 285°
2026-04-16 11:07 44.41631 8.82744 36 ft 6 kts 285°
2026-04-16 11:07 44.41646 8.82667 36 ft 9 kts 285°
2026-04-16 11:07 44.41662 8.82581 36 ft 6 kts 277°
2026-04-16 11:08 44.41653 8.82532 36 ft 4 kts 232°
2026-04-16 11:08 44.41623 8.82507 36 ft 5 kts 204°
2026-04-16 11:08 44.41585 8.82491 36 ft 6 kts 195°
2026-04-16 11:08 44.41542 8.82488 36 ft 6 kts 160°
2026-04-16 11:09 44.41525 8.82520 36 ft 0 kts 110°
2026-04-16 11:09 44.41525 8.82521 36 ft 0 kts 110°
2026-04-16 11:10 44.41499 8.82638 36 ft 36 kts 104°
2026-04-16 11:10 44.41365 8.83318 36 ft 106 kts 106°
2026-04-16 11:10 44.41114 8.84589 40 ft 163 kts 104°
2026-04-16 11:10 44.40779 8.86257 393 ft 181 kts 109°
2026-04-16 11:11 44.40401 8.87905 1122 ft 180 kts 115°
2026-04-16 11:11 44.39599 8.89115 1782 ft 177 kts 160°
2026-04-16 11:11 44.38379 8.89088 2313 ft 182 kts 202°
2026-04-16 11:11 44.37413 8.87953 2781 ft 190 kts 232°
2026-04-16 11:12 44.36614 8.86481 3309 ft 192 kts 230°
2026-04-16 11:12 44.35761 8.85044 3813 ft 195 kts 229°
2026-04-16 11:12 44.34876 8.83587 4332 ft 199 kts 229°
2026-04-16 11:12 44.33921 8.82203 4834 ft 201 kts 213°
2026-04-16 11:13 44.32600 8.81593 5318 ft 202 kts 185°
2026-04-16 11:13 44.31202 8.81523 5824 ft 204 kts 180°
2026-04-16 11:13 44.29773 8.81516 6333 ft 207 kts 180°
2026-04-16 11:13 44.28339 8.81482 6846 ft 210 kts 181°
2026-04-16 11:14 44.26873 8.81411 7380 ft 212 kts 182°
2026-04-16 11:14 44.25405 8.81313 7912 ft 214 kts 182°
2026-04-16 11:14 44.23915 8.81200 8437 ft 217 kts 183°
2026-04-16 11:14 44.22407 8.81080 8953 ft 219 kts 182°
2026-04-16 11:15 44.20879 8.81440 9263 ft 229 kts 150°
2026-04-16 11:15 44.19815 8.83078 9516 ft 238 kts 110°
2026-04-16 11:15 44.19718 8.85387 9742 ft 251 kts 72°
2026-04-16 11:15 44.20681 8.87420 9954 ft 265 kts 37°
2026-04-16 11:16 44.22182 8.88655 10253 ft 279 kts 27°
2026-04-16 11:16 44.23927 8.89937 10547 ft 295 kts 28°
2026-04-16 11:16 44.25774 8.91365 10837 ft 311 kts 30°
2026-04-16 11:16 44.27690 8.92918 11112 ft 326 kts 31°
2026-04-16 11:17 44.29681 8.94582 11379 ft 341 kts 31°
2026-04-16 11:17 44.31759 8.96357 11659 ft 355 kts 32°
2026-04-16 11:17 44.33849 8.98162 12129 ft 361 kts 32°
2026-04-16 11:17 44.35995 9.00026 12728 ft 364 kts 32°
2026-04-16 11:18 44.38151 9.01906 13301 ft 366 kts 32°
2026-04-16 11:18 44.40288 9.03776 13836 ft 368 kts 32°
2026-04-16 11:18 44.42474 9.05689 14390 ft 371 kts 32°
2026-04-16 11:18 44.44671 9.07613 14997 ft 374 kts 32°
2026-04-16 11:19 44.46858 9.09533 15512 ft 378 kts 32°
2026-04-16 11:19 44.49102 9.11506 15981 ft 380 kts 32°
2026-04-16 11:19 44.51338 9.13475 16386 ft 382 kts 31°
2026-04-16 11:19 44.53590 9.15459 16783 ft 384 kts 31°
2026-04-16 11:20 44.55841 9.17446 17274 ft 385 kts 31°
2026-04-16 11:20 44.58112 9.19451 17761 ft 387 kts 31°
2026-04-16 11:20 44.60395 9.21470 18223 ft 390 kts 31°
2026-04-16 11:20 44.62691 9.23502 18679 ft 391 kts 31°
2026-04-16 11:21 44.64986 9.25537 19109 ft 393 kts 31°
2026-04-16 11:21 44.67302 9.27588 19514 ft 396 kts 31°
2026-04-16 11:21 44.69611 9.29642 19911 ft 399 kts 31°
2026-04-16 11:21 44.71974 9.31748 20333 ft 401 kts 31°
2026-04-16 11:22 44.74309 9.33828 20744 ft 403 kts 31°
2026-04-16 11:22 44.76699 9.35957 21144 ft 405 kts 31°
2026-04-16 11:22 44.79076 9.38074 21524 ft 408 kts 31°
2026-04-16 11:22 44.81482 9.40220 21906 ft 411 kts 31°
2026-04-16 11:23 44.83901 9.42379 22267 ft 413 kts 31°
2026-04-16 11:23 44.86310 9.44533 22613 ft 415 kts 31°
2026-04-16 11:23 44.88768 9.46733 22959 ft 417 kts 31°
2026-04-16 11:23 44.91200 9.48911 23292 ft 420 kts 31°
2026-04-16 11:24 44.93682 9.51136 23620 ft 422 kts 31°
2026-04-16 11:24 44.96146 9.53347 23939 ft 424 kts 31°
2026-04-16 11:24 44.98649 9.55596 24256 ft 425 kts 31°
2026-04-16 11:24 45.01137 9.57832 24566 ft 427 kts 31°
2026-04-16 11:25 45.03623 9.60070 24871 ft 429 kts 31°
2026-04-16 11:25 45.06131 9.62331 25164 ft 431 kts 31°
2026-04-16 11:25 45.08686 9.64636 25448 ft 433 kts 31°
2026-04-16 11:25 45.11214 9.66921 25724 ft 436 kts 32°
2026-04-16 11:26 45.13776 9.69240 25997 ft 438 kts 32°
2026-04-16 11:26 45.16350 9.71571 26261 ft 440 kts 32°
2026-04-16 11:26 45.18937 9.73875 26512 ft 442 kts 30°
2026-04-16 11:26 45.21599 9.76084 26760 ft 444 kts 29°
2026-04-16 11:27 45.24264 9.78253 26999 ft 446 kts 29°
2026-04-16 11:27 45.26964 9.80444 27240 ft 448 kts 29°
2026-04-16 11:27 45.29653 9.82631 27470 ft 450 kts 29°
2026-04-16 11:27 45.32375 9.84849 27706 ft 452 kts 29°
2026-04-16 11:28 45.35094 9.87072 27995 ft 452 kts 29°
2026-04-16 11:28 45.37809 9.89294 28310 ft 451 kts 28°
2026-04-16 11:28 45.40523 9.91520 28612 ft 451 kts 28°
2026-04-16 11:28 45.43242 9.93752 28902 ft 451 kts 28°
2026-04-16 11:29 45.45934 9.95965 29207 ft 451 kts 28°
2026-04-16 11:29 45.48636 9.98187 29534 ft 451 kts 28°
2026-04-16 11:29 45.51348 10.00421 29869 ft 450 kts 28°
2026-04-16 11:29 45.54078 10.02673 30213 ft 450 kts 28°
2026-04-16 11:30 45.56760 10.04949 30541 ft 450 kts 32°
2026-04-16 11:30 45.59182 10.07706 30844 ft 452 kts 42°
2026-04-16 11:30 45.61260 10.11048 31174 ft 453 kts 52°
2026-04-16 11:30 45.62925 10.14876 31511 ft 454 kts 62°
2026-04-16 11:31 45.64114 10.19054 31828 ft 455 kts 72°
2026-04-16 11:31 45.64792 10.23444 32134 ft 455 kts 81°
2026-04-16 11:31 45.65156 10.27913 32463 ft 455 kts 83°
2026-04-16 11:31 45.65617 10.32365 32744 ft 455 kts 77°
2026-04-16 11:32 45.66446 10.36668 32978 ft 456 kts 69°
2026-04-16 11:32 45.67741 10.40822 33225 ft 456 kts 60°
2026-04-16 11:32 45.69440 10.44589 33473 ft 456 kts 51°
2026-04-16 11:32 45.71542 10.47985 33718 ft 455 kts 42°
2026-04-16 11:33 45.73971 10.50886 33928 ft 455 kts 34°
2026-04-16 11:33 45.76598 10.53419 34091 ft 456 kts 31°
2026-04-16 11:33 45.79239 10.55842 34093 ft 456 kts 31°
2026-04-16 11:34 45.84582 10.60747 33843 ft 456 kts 31°
2026-04-16 11:34 45.87206 10.63192 33600 ft 456 kts 31°
2026-04-16 11:34 45.89858 10.65674 33399 ft 455 kts 32°
2026-04-16 11:34 45.92576 10.68052 33253 ft 455 kts 29°
2026-04-16 11:35 45.95354 10.70196 33119 ft 454 kts 25°
2026-04-16 11:35 46.01053 10.73977 33415 ft 450 kts 23°
2026-04-16 11:35 46.03877 10.75789 33705 ft 444 kts 23°
2026-04-16 11:36 46.06682 10.77591 34102 ft 440 kts 22°
2026-04-16 11:36 46.09454 10.79375 34323 ft 442 kts 22°
2026-04-16 11:36 46.12263 10.81187 34427 ft 448 kts 22°
2026-04-16 11:37 46.18028 10.84918 34447 ft 456 kts 22°
2026-04-16 11:37 46.23797 10.88663 34366 ft 457 kts 22°
2026-04-16 11:38 46.29583 10.92429 34229 ft 457 kts 22°
2026-04-16 11:38 46.35340 10.96185 34112 ft 457 kts 22°
2026-04-16 11:39 46.41148 10.99984 34060 ft 457 kts 22°
2026-04-16 11:39 46.46918 11.03768 34058 ft 457 kts 22°
2026-04-16 11:40 46.52671 11.07548 34069 ft 457 kts 22°
2026-04-16 11:40 46.58470 11.11369 34224 ft 457 kts 22°
2026-04-16 11:41 46.64249 11.15185 34292 ft 458 kts 22°
2026-04-16 11:41 46.70017 11.19000 34180 ft 458 kts 22°
2026-04-16 11:41 46.72896 11.20909 34070 ft 458 kts 22°
2026-04-16 11:42 46.75796 11.22833 33895 ft 458 kts 22°
2026-04-16 11:42 46.78673 11.24745 33745 ft 458 kts 22°
2026-04-16 11:42 46.81564 11.26667 33608 ft 458 kts 22°
2026-04-16 11:42 46.84459 11.28596 33471 ft 459 kts 22°
2026-04-16 11:43 46.87380 11.30545 33322 ft 459 kts 22°
2026-04-16 11:43 46.90265 11.32447 33163 ft 459 kts 21°
2026-04-16 11:43 46.93219 11.34164 33005 ft 458 kts 18°
2026-04-16 11:43 46.96220 11.35620 32854 ft 457 kts 14°
2026-04-16 11:44 46.99290 11.36817 32730 ft 456 kts 11°
2026-04-16 11:44 47.05513 11.38388 32813 ft 454 kts
2026-04-16 11:44 47.08664 11.38793 33059 ft 450 kts
2026-04-16 11:45 47.11769 11.39098 33414 ft 446 kts
2026-04-16 11:45 47.14886 11.39386 33704 ft 445 kts
2026-04-16 11:45 47.17960 11.39675 33925 ft 446 kts
2026-04-16 11:45 47.21048 11.39976 34096 ft 448 kts
2026-04-16 11:46 47.24179 11.40170 34249 ft 451 kts 358°
2026-04-16 11:46 47.30430 11.40218 34370 ft 452 kts 357°
2026-04-16 11:47 47.36704 11.40212 34318 ft 452 kts 356°
2026-04-16 11:47 47.42990 11.40185 34152 ft 452 kts 356°
2026-04-16 11:48 47.49247 11.40106 33953 ft 452 kts 356°
2026-04-16 11:48 47.55532 11.40032 33890 ft 453 kts 356°
2026-04-16 11:49 47.61825 11.39913 34065 ft 452 kts 354°
2026-04-16 11:49 47.68061 11.39208 34225 ft 451 kts 351°
2026-04-16 11:50 47.74269 11.38343 34280 ft 451 kts 351°
2026-04-16 11:50 47.80523 11.37482 34301 ft 451 kts 351°
2026-04-16 11:51 47.86758 11.36651 34283 ft 451 kts 352°
2026-04-16 11:51 47.93016 11.36120 34266 ft 452 kts 353°
2026-04-16 11:52 47.99286 11.35624 34267 ft 452 kts 353°
2026-04-16 11:52 48.05557 11.35086 34268 ft 452 kts 352°
2026-04-16 11:53 48.11758 11.34060 34277 ft 450 kts 348°
2026-04-16 11:53 48.17962 11.32941 34279 ft 453 kts 353°
2026-04-16 11:54 48.24253 11.33899 34273 ft 461 kts 11°
2026-04-16 11:54 48.30157 11.37607 34262 ft 469 kts 28°
2026-04-16 11:55 48.35239 11.43786 34260 ft 474 kts 41°
2026-04-16 11:55 48.39928 11.50758 34251 ft 474 kts 42°
2026-04-16 11:56 48.44640 11.57714 34245 ft 474 kts 41°
2026-04-16 11:56 48.49490 11.64334 34246 ft 471 kts 32°
2026-04-16 11:57 48.55188 11.68856 34257 ft 464 kts 16°
2026-04-16 11:57 48.61427 11.70660 34261 ft 455 kts 358°
2026-04-16 11:58 48.67639 11.69739 34262 ft 446 kts 342°
2026-04-16 11:58 48.73502 11.66874 34261 ft 443 kts 336°
2026-04-16 11:59 48.79298 11.63831 34256 ft 443 kts 337°
2026-04-16 11:59 48.85109 11.60835 34255 ft 443 kts 337°
2026-04-16 12:00 48.90953 11.57816 34255 ft 443 kts 337°
2026-04-16 12:00 48.96741 11.54817 34182 ft 444 kts 337°
2026-04-16 12:00 48.99661 11.53298 33599 ft 447 kts 337°
2026-04-16 12:01 49.02620 11.51757 32882 ft 449 kts 337°
2026-04-16 12:01 49.05573 11.50219 32180 ft 450 kts 337°
2026-04-16 12:01 49.08526 11.48672 31479 ft 450 kts 336°
2026-04-16 12:02 49.13670 11.43736 29965 ft 436 kts 311°
2026-04-16 12:02 49.15545 11.40167 29121 ft 431 kts 300°
2026-04-16 12:02 49.16949 11.36172 28339 ft 428 kts 295°
2026-04-16 12:02 49.18239 11.32153 27608 ft 426 kts 294°
2026-04-16 12:03 49.19524 11.28127 26977 ft 419 kts 294°
2026-04-16 12:03 49.20990 11.24301 26479 ft 414 kts 302°
2026-04-16 12:03 49.22749 11.20809 25993 ft 414 kts 308°
2026-04-16 12:03 49.24756 11.17689 25512 ft 414 kts 314°
2026-04-16 12:04 49.26860 11.14717 25094 ft 411 kts 311°
2026-04-16 12:04 49.28538 11.11265 24647 ft 404 kts 298°
2026-04-16 12:04 49.29613 11.07370 24170 ft 400 kts 285°
2026-04-16 12:04 49.30146 11.03248 23695 ft 395 kts 278°
2026-04-16 12:05 49.30553 10.99068 23225 ft 392 kts 278°
2026-04-16 12:05 49.30940 10.94975 22753 ft 389 kts 278°
2026-04-16 12:05 49.31327 10.90921 22261 ft 386 kts 278°
2026-04-16 12:05 49.31716 10.86874 21746 ft 383 kts 278°
2026-04-16 12:06 49.32100 10.82887 21258 ft 379 kts 278°
2026-04-16 12:06 49.32486 10.78933 20769 ft 376 kts 280°
2026-04-16 12:06 49.33296 10.75146 20251 ft 374 kts 297°
2026-04-16 12:06 49.34827 10.72025 19754 ft 374 kts 314°
2026-04-16 12:07 49.36955 10.69725 19227 ft 378 kts 331°
2026-04-16 12:07 49.39476 10.68605 18703 ft 383 kts 350°
2026-04-16 12:07 49.42147 10.68836 18163 ft 389 kts
2026-04-16 12:07 49.44609 10.70433 17630 ft 395 kts 30°
2026-04-16 12:08 49.46610 10.73326 17096 ft 400 kts 51°
2026-04-16 12:08 49.47818 10.77133 16558 ft 402 kts 73°
2026-04-16 12:08 49.48002 10.81387 16047 ft 400 kts 98°
2026-04-16 12:08 49.47109 10.85373 15535 ft 395 kts 122°
2026-04-16 12:09 49.45333 10.88471 15020 ft 387 kts 144°
2026-04-16 12:09 49.43190 10.90849 14513 ft 385 kts 145°
2026-04-16 12:09 49.41355 10.93844 13949 ft 387 kts 122°
2026-04-16 12:09 49.40454 10.97678 13454 ft 385 kts 101°
2026-04-16 12:10 49.40106 11.01721 12961 ft 383 kts 95°
2026-04-16 12:10 49.39837 11.05740 12462 ft 381 kts 96°
2026-04-16 12:10 49.39520 11.09796 11956 ft 379 kts 97°
2026-04-16 12:10 49.39162 11.13755 11463 ft 376 kts 98°
2026-04-16 12:11 49.38784 11.17654 11069 ft 370 kts 98°
2026-04-16 12:11 49.38402 11.21490 10859 ft 358 kts 98°
2026-04-16 12:11 49.38029 11.25209 10713 ft 345 kts 98°
2026-04-16 12:11 49.37669 11.28786 10562 ft 333 kts 98°
2026-04-16 12:12 49.37322 11.32236 10421 ft 321 kts 98°
2026-04-16 12:12 49.36990 11.35520 10288 ft 309 kts 98°
2026-04-16 12:12 49.36668 11.38707 10045 ft 301 kts 98°
2026-04-16 12:12 49.36345 11.41885 9675 ft 299 kts 98°
2026-04-16 12:13 49.36029 11.44983 9326 ft 296 kts 98°
2026-04-16 12:13 49.35714 11.48068 8986 ft 292 kts 98°
2026-04-16 12:13 49.35399 11.51142 8650 ft 290 kts 98°
2026-04-16 12:13 49.35091 11.54145 8324 ft 287 kts 98°
2026-04-16 12:14 49.35035 11.57187 7939 ft 285 kts 75°
2026-04-16 12:14 49.35939 11.59787 7601 ft 277 kts 43°
2026-04-16 12:14 49.37524 11.61334 7254 ft 269 kts 14°
2026-04-16 12:14 49.39327 11.61834 6952 ft 264 kts
2026-04-16 12:15 49.41141 11.62156 6628 ft 261 kts 359°
2026-04-16 12:15 49.42867 11.61657 6281 ft 253 kts 330°
2026-04-16 12:15 49.44210 11.59987 5949 ft 248 kts 304°
2026-04-16 12:15 49.44923 11.57646 5619 ft 245 kts 283°
2026-04-16 12:16 49.45267 11.55101 5311 ft 244 kts 280°
2026-04-16 12:16 49.45568 11.52523 4996 ft 243 kts 279°
2026-04-16 12:16 49.45832 11.49991 4685 ft 243 kts 279°
2026-04-16 12:16 49.46084 11.47439 4374 ft 244 kts 278°
2026-04-16 12:17 49.46332 11.44831 4087 ft 245 kts 278°
2026-04-16 12:17 49.46568 11.42291 3990 ft 233 kts 278°
2026-04-16 12:17 49.46789 11.39900 3991 ft 219 kts 278°
2026-04-16 12:17 49.47001 11.37604 4007 ft 217 kts 278°
2026-04-16 12:18 49.47214 11.35321 3996 ft 216 kts 278°
2026-04-16 12:18 49.47429 11.33044 4016 ft 212 kts 278°
2026-04-16 12:18 49.47635 11.30879 3871 ft 201 kts 278°
2026-04-16 12:18 49.47836 11.28788 3574 ft 194 kts 278°
2026-04-16 12:19 49.48022 11.26821 3286 ft 182 kts 278°
2026-04-16 12:19 49.48200 11.24964 3061 ft 166 kts 278°
2026-04-16 12:19 49.48362 11.23275 2825 ft 156 kts 278°
2026-04-16 12:19 49.48521 11.21688 2605 ft 146 kts 278°
2026-04-16 12:20 49.48667 11.20144 2424 ft 146 kts 277°
2026-04-16 12:20 49.48816 11.18593 2244 ft 149 kts 278°
2026-04-16 12:20 49.48972 11.17019 2034 ft 149 kts 278°
2026-04-16 12:20 49.49123 11.15450 1830 ft 148 kts 278°
2026-04-16 12:21 49.49271 11.13870 1642 ft 148 kts 279°
2026-04-16 12:21 49.49430 11.12308 1449 ft 147 kts 279°
2026-04-16 12:21 49.49578 11.10751 1241 ft 148 kts 279°
2026-04-16 12:21 49.49729 11.09213 1068 ft 145 kts 280°
2026-04-16 12:22 49.49855 11.07967 1050 ft 77 kts 278°
2026-04-16 12:22 49.49871 11.07646 1050 ft 7 kts 193°
2026-04-16 12:22 49.49836 11.07651 1050 ft 5 kts 167°
2026-04-16 12:22 49.49798 11.07671 1050 ft 6 kts 154°
2026-04-16 12:23 49.49768 11.07694 1050 ft 4 kts 153°
2026-04-16 12:23 49.49764 11.07697 1050 ft 0 kts 153°
2026-04-16 12:24 49.49760 11.07699 1050 ft 1 kts 153°
2026-04-16 12:24 49.49740 11.07715 1050 ft 5 kts 154°
2026-04-16 12:24 49.49704 11.07742 1050 ft 7 kts 154°
2026-04-16 12:25 49.49653 11.07766 1050 ft 8 kts 178°
2026-04-16 12:25 49.49599 11.07780 1050 ft 5 kts 147°
2026-04-16 12:25 49.49590 11.07789 1050 ft 4 kts 149°
2026-04-16 12:25 49.49545 11.07796 1050 ft 5 kts 187°
2026-04-16 12:26 49.49519 11.07791 1050 ft 0 kts 188°